Location: *
(49.9853°N, 3.5569°E)
Time: 02:27:04
(UTC+00:00)

Cosmos 2219 - Pass Details

Date: 22 September 2019
Orbit: 834 x 860 km, 71.1° (Epoch: 15 October)

Event Time Altitude Azimuth Distance (km) Brightness Sun altitude
Rises 18:07:54 0° 180° (S) 3,421 6.3 -4.6°
Reaches altitude 10° 18:10:30 10° 172° (S) 2,490 5.5 -5.0°
Maximum altitude 18:15:43 37° 107° (ESE) 1,308 3.7 -5.8°
Drops below altitude 10° 18:20:56 10° 42° (NE) 2,501 5.3 -6.6°
Sets 18:23:33 0° 34° (NE) 3,439 6.1 -7.0°
